Orbital Elements at Epoch 2459000.5 (2020-May-31.0) TDB
Reference: JPL 16 (heliocentric ecliptic J2000)
Element | Value | Uncertainty (1-sigma) | Units |
e | .1930977235287063 | 8.3521e-08 | |
a | 3.007252131812686 | 3.4897e-08 | au |
q | 2.426558591082808 | 2.6654e-07 | au |
i | 4.557004109056127 | 7.446e-06 | deg |
node | 21.76706064011092 | 6.0745e-05 | deg |
peri | 356.304994946635 | 6.3415e-05 | deg |
M | 32.47273572608331 | 1.5092e-05 | deg |
tp | 2458828.681641202967 (2019-Dec-11.18164120) | 7.9294e-05 | TDB |
period | 1904.816695725699 5.22 | 3.3156e-05 9.078e-08 | d yr |
n | .1889945635229992 | 3.2897e-09 | deg/d |
Q | 3.587945672542565 | 4.1636e-08 | au |
|
| | Orbit Determination Parameters
Additional Information
|